Location: Chillicothe
(39.7950°N, 93.5520°W)
Time: 05:17:54
(UTC-05:00)

N. Korean satellite - Visible Passes

Search period start: 19 September 2019 00:00
Search period end: 29 September 2019 00:00
Orbit: 455 x 509 km, 97.2° (Epoch: 18 September)

Date Brightness Start Highest point End Pass type
(mag) Time Alt. Az. Time Alt. Az. Time Alt. Az.
20 Sep 9.8 06:19:47 10° NE 06:21:56 16° E 06:24:05 10° SE visible
23 Sep 9.1 06:36:47 10° NE 06:39:44 26° E 06:42:41 10° SSE visible
24 Sep 10.0 06:12:44 10° ENE 06:14:21 13° E 06:15:57 10° ESE visible
25 Sep 10.2 19:29:08 10° WSW 19:30:47 13° W 19:32:26 10° WNW visible
27 Sep 9.5 06:29:25 10° NE 06:32:09 22° E 06:34:53 10° SSE visible
28 Sep 10.5 06:06:10 10° E 06:06:45 10° E 06:07:18 10° E visible
